| time (UTC) | temp F | wind direction | speed MPH | gust MPH | rain 1hr in | rain 24hr in | rain mn in | humidity % | barometer mb |
| 20260504000004 | 51 | 320 | 1.0 | 7.0 | 0.00 | 0.00 | 0.00 | 45 | 1015.4 |
| 20260503235503 | 51 | 261 | 1.0 | 5.0 | 0.00 | 0.00 | 0.00 | 42 | 1015.3 |
| 20260503235003 | 51 | 287 | 2.0 | 8.0 | 0.00 | 0.00 | 0.00 | 40 | 1015.3 |
| 20260503234508 | 52 | 334 | 3.0 | 8.0 | 0.00 | 0.00 | 0.00 | 40 | 1015.3 |
| 20260503234004 | 52 | 313 | 3.0 | 8.0 | 0.00 | 0.00 | 0.00 | 39 | 1015.4 |
| 20260503233503 | 53 | 319 | 2.0 | 13.0 | 0.00 | 0.00 | 0.00 | 39 | 1015.3 |
| 20260503233018 | 53 | 281 | 4.0 | 13.0 | 0.00 | 0.00 | 0.00 | 38 | 1015.4 |
| 20260503232504 | 54 | 308 | 7.0 | 13.0 | 0.00 | 0.00 | 0.00 | 37 | 1015.4 |
| 20260503232010 | 54 | 329 | 3.0 | 13.0 | 0.00 | 0.00 | 0.00 | 37 | 1015.4 |
| 20260503231518 | 54 | 284 | 4.0 | 13.0 | 0.00 | 0.00 | 0.00 | 36 | 1015.4 |
| 20260503231007 | 55 | 304 | 3.0 | 8.0 | 0.00 | 0.00 | 0.00 | 36 | 1015.4 |
| 20260503230509 | 55 | 338 | 2.0 | 10.0 | 0.00 | 0.00 | 0.00 | 35 | 1015.3 |
| 20260503230036 | 54 | 281 | 4.0 | 14.0 | 0.00 | 0.00 | 0.00 | 35 | 1015.3 |
| 20260503225507 | 54 | 265 | 5.0 | 18.0 | 0.00 | 0.00 | 0.00 | 36 | 1015.4 |
| 20260503225007 | 54 | 328 | 11.0 | 18.0 | 0.00 | 0.00 | 0.00 | 36 | 1015.4 |
| 20260503224526 | 54 | 333 | 5.0 | 12.0 | 0.00 | 0.00 | 0.00 | 36 | 1015.4 |
| 20260503224005 | 54 | 299 | 4.0 | 12.0 | 0.00 | 0.00 | 0.00 | 36 | 1015.4 |
| 20260503223503 | 55 | 285 | 7.0 | 13.0 | 0.00 | 0.00 | 0.00 | 37 | 1015.4 |
| 20260503223008 | 54 | 299 | 4.0 | 14.0 | 0.00 | 0.00 | 0.00 | 35 | 1015.4 |
| 20260503222503 | 55 | 317 | 10.0 | 14.0 | 0.00 | 0.00 | 0.00 | 37 | 1015.4 |
| 20260503222007 | 55 | 296 | 4.0 | 12.0 | 0.00 | 0.00 | 0.00 | 37 | 1015.4 |
| 20260503221515 | 55 | 320 | 5.0 | 12.0 | 0.00 | 0.00 | 0.00 | 34 | 1015.3 |
| 20260503221008 | 55 | 318 | 7.0 | 12.0 | 0.00 | 0.00 | 0.00 | 35 | 1015.3 |
| 20260503220506 | 55 | 317 | 5.0 | 13.0 | 0.00 | 0.00 | 0.00 | 35 | 1015.2 |
| 20260503220021 | 55 | 333 | 4.0 | 13.0 | 0.00 | 0.00 | 0.00 | 35 | 1015.2 |
| 20260503215507 | 55 | 272 | 4.0 | 14.0 | 0.00 | 0.00 | 0.00 | 35 | 1015.2 |
| 20260503215007 | 55 | 336 | 5.0 | 14.0 | 0.00 | 0.00 | 0.00 | 35 | 1015.2 |
| 20260503214536 | 55 | 331 | 8.0 | 13.0 | 0.00 | 0.00 | 0.00 | 36 | 1015.1 |
| 20260503214010 | 55 | 330 | 2.0 | 7.0 | 0.00 | 0.00 | 0.00 | 34 | 1015.2 |
| 20260503213507 | 55 | 257 | 2.0 | 13.0 | 0.00 | 0.00 | 0.00 | 34 | 1015.3 |
| 20260503213027 | 54 | 331 | 5.0 | 15.0 | 0.00 | 0.00 | 0.00 | 34 | 1015.4 |
| 20260503212504 | 55 | 271 | 9.0 | 15.0 | 0.00 | 0.00 | 0.00 | 33 | 1015.4 |
| 20260503212006 | 55 | 294 | 4.0 | 15.0 | 0.00 | 0.00 | 0.00 | 36 | 1015.4 |
| 20260503211511 | 55 | 316 | 6.0 | 16.0 | 0.00 | 0.00 | 0.00 | 37 | 1015.4 |
| 20260503211005 | 55 | 311 | 9.0 | 16.0 | 0.00 | 0.00 | 0.00 | 36 | 1015.4 |
| 20260503210507 | 55 | 338 | 7.0 | 14.0 | 0.00 | 0.00 | 0.00 | 36 | 1015.5 |
| 20260503210017 | 55 | 330 | 7.0 | 14.0 | 0.00 | 0.00 | 0.00 | 36 | 1015.6 |
| 20260503205507 | 54 | 15 | 1.0 | 13.0 | 0.00 | 0.00 | 0.00 | 34 | 1015.7 |
| 20260503205010 | 54 | 306 | 5.0 | 15.0 | 0.00 | 0.00 | 0.00 | 38 | 1015.8 |
| 20260503204520 | 54 | 282 | 7.0 | 15.0 | 0.00 | 0.00 | 0.00 | 35 | 1015.9 |
| 20260503204008 | 54 | 293 | 4.0 | 12.0 | 0.00 | 0.00 | 0.00 | 34 | 1015.7 |
| 20260503203505 | 53 | 327 | 5.0 | 19.0 | 0.00 | 0.00 | 0.00 | 37 | 1016.0 |
| 20260503203033 | 53 | 320 | 11.0 | 19.0 | 0.00 | 0.00 | 0.00 | 36 | 1016.0 |
| 20260503202511 | 54 | 319 | 11.0 | 19.0 | 0.00 | 0.00 | 0.00 | 34 | 1016.0 |
| 20260503202015 | 54 | 304 | 9.0 | 19.0 | 0.00 | 0.00 | 0.00 | 37 | 1016.1 |
| 20260503201528 | 54 | 296 | 5.0 | 13.0 | 0.00 | 0.00 | 0.00 | 35 | 1016.1 |
| 20260503201010 | 54 | 303 | 5.0 | 13.0 | 0.00 | 0.00 | 0.00 | 35 | 1016.3 |
| 20260503200509 | 54 | 270 | 7.0 | 12.0 | 0.00 | 0.00 | 0.00 | 35 | 1016.3 |
| 20260503200016 | 54 | 263 | 5.0 | 11.0 | 0.00 | 0.00 | 0.00 | 38 | 1016.3 |
| 20260503195505 | 54 | 5 | 5.0 | 14.0 | 0.00 | 0.00 | 0.00 | 40 | 1016.3 |
| 20260503195008 | 54 | 229 | 5.0 | 14.0 | 0.00 | 0.00 | 0.00 | 35 | 1016.4 |
| 20260503194522 | 54 | 339 | 5.0 | 12.0 | 0.00 | 0.00 | 0.00 | 39 | 1016.6 |
| 20260503194011 | 53 | 185 | 6.0 | 14.0 | 0.00 | 0.00 | 0.00 | 36 | 1016.7 |
| 20260503193508 | 53 | 340 | 7.0 | 14.0 | 0.00 | 0.00 | 0.00 | 34 | 1016.7 |
| 20260503193036 | 53 | 342 | 6.0 | 17.0 | 0.00 | 0.00 | 0.00 | 39 | 1016.7 |
| 20260503192508 | 53 | 348 | 9.0 | 18.0 | 0.00 | 0.00 | 0.00 | 40 | 1016.9 |
| 20260503192009 | 53 | 283 | 8.0 | 18.0 | 0.00 | 0.00 | 0.00 | 36 | 1016.8 |
| 20260503191559 | 53 | 257 | 2.0 | 11.0 | 0.00 | 0.00 | 0.00 | 35 | 1016.8 |
| 20260503191010 | 53 | 319 | 7.0 | 15.0 | 0.00 | 0.00 | 0.00 | 36 | 1016.9 |
| 20260503190508 | 52 | 273 | 4.0 | 17.0 | 0.00 | 0.00 | 0.00 | 37 | 1016.9 |
| 20260503190003 | 53 | 283 | 10.0 | 17.0 | 0.00 | 0.00 | 0.00 | 36 | 1016.9 |
| 20260503185502 | 53 | 195 | 2.0 | 12.0 | 0.00 | 0.00 | 0.00 | 36 | 1017.0 |
| 20260503185002 | 53 | 324 | 5.0 | 12.0 | 0.00 | 0.00 | 0.00 | 39 | 1017.1 |
| 20260503184504 | 52 | 233 | 2.0 | 14.0 | 0.00 | 0.00 | 0.00 | 43 | 1017.1 |
| 20260503184003 | 52 | 294 | 5.0 | 14.0 | 0.00 | 0.00 | 0.00 | 37 | 1017.1 |
| 20260503183505 | 52 | 326 | 7.0 | 14.0 | 0.00 | 0.00 | 0.00 | 41 | 1017.1 |
| 20260503183005 | 51 | 352 | 5.0 | 14.0 | 0.00 | 0.00 | 0.00 | 43 | 1017.3 |
| 20260503182502 | 51 | 274 | 6.0 | 14.0 | 0.00 | 0.00 | 0.00 | 40 | 1017.3 |
| 20260503182004 | 51 | 303 | 3.0 | 14.0 | 0.00 | 0.00 | 0.00 | 39 | 1017.4 |
| 20260503181507 | 51 | 223 | 5.0 | 13.0 | 0.00 | 0.00 | 0.00 | 37 | 1017.5 |
| 20260503181003 | 52 | 288 | 3.0 | 12.0 | 0.00 | 0.00 | 0.00 | 39 | 1017.5 |
| 20260503180503 | 51 | 294 | 3.0 | 16.0 | 0.00 | 0.00 | 0.00 | 40 | 1017.6 |
| 20260503180007 | 51 | 256 | 6.0 | 16.0 | 0.00 | 0.00 | 0.00 | 39 | 1017.7 |
| 20260503175502 | 51 | 270 | 7.0 | 14.0 | 0.00 | 0.00 | 0.00 | 42 | 1017.9 |
| 20260503175002 | 51 | 326 | 7.0 | 14.0 | 0.00 | 0.00 | 0.00 | 42 | 1017.8 |
| 20260503174503 | 50 | 15 | 6.0 | 12.0 | 0.00 | 0.00 | 0.00 | 41 | 1017.8 |
| 20260503174003 | 50 | 304 | 8.0 | 14.0 | 0.00 | 0.00 | 0.00 | 40 | 1017.8 |
| 20260503173503 | 49 | 283 | 3.0 | 14.0 | 0.00 | 0.00 | 0.00 | 39 | 1017.8 |
| 20260503173007 | 49 | 271 | 1.0 | 12.0 | 0.00 | 0.00 | 0.00 | 39 | 1017.8 |
| 20260503172502 | 49 | 308 | 4.0 | 17.0 | 0.00 | 0.00 | 0.00 | 42 | 1018.0 |
| 20260503172002 | 49 | 277 | 9.0 | 17.0 | 0.00 | 0.00 | 0.00 | 41 | 1018.0 |
| 20260503171505 | 49 | 332 | 10.0 | 16.0 | 0.00 | 0.00 | 0.00 | 46 | 1017.9 |
| 20260503171002 | 49 | 333 | 4.0 | 12.0 | 0.00 | 0.00 | 0.00 | 42 | 1018.0 |
| 20260503170502 | 49 | 344 | 6.0 | 12.0 | 0.00 | 0.00 | 0.00 | 40 | 1018.1 |
| 20260503151007 | 43 | 325 | 6.0 | 16.0 | 0.00 | 0.00 | 0.00 | 48 | 1019.4 |
| 20260503150503 | 44 | 307 | 6.0 | 16.0 | 0.00 | 0.00 | 0.00 | 48 | 1019.3 |
| 20260503131006 | 39 | 296 | 2.0 | 15.0 | 0.00 | 0.00 | 0.00 | 65 | 1018.8 |
| 20260503130507 | 39 | 337 | 8.0 | 15.0 | 0.00 | 0.00 | 0.00 | 64 | 1018.8 |
| 20260503110508 | 33 | 206 | 0.0 | 1.0 | 0.00 | 0.00 | 0.00 | 86 | 1017.9 |
| 20260503090507 | 35 | 323 | 2.0 | 7.0 | 0.00 | 0.00 | 0.00 | 81 | 1016.6 |
| 20260503081532 | 36 | 262 | 4.0 | 10.0 | 0.00 | 0.00 | 0.00 | 81 | 1016.4 |
| 20260503081008 | 36 | 311 | 6.0 | 10.0 | 0.00 | 0.00 | 0.00 | 81 | 1016.4 |
| 20260503080510 | 36 | 335 | 2.0 | 9.0 | 0.00 | 0.00 | 0.00 | 82 | 1016.3 |
| 20260503072512 | 36 | 298 | 2.0 | 8.0 | 0.00 | 0.00 | 0.00 | 80 | 1016.1 |
| 20260503072006 | 36 | 271 | 2.0 | 9.0 | 0.00 | 0.00 | 0.00 | 80 | 1016.0 |
| 20260503071521 | 36 | 269 | 3.0 | 9.0 | 0.00 | 0.00 | 0.00 | 79 | 1015.9 |
| 20260503071006 | 36 | 315 | 4.0 | 8.0 | 0.00 | 0.00 | 0.00 | 79 | 1015.8 |
| 20260503070509 | 36 | 263 | 4.0 | 11.0 | 0.00 | 0.00 | 0.00 | 79 | 1015.7 |
| 20260503055006 | 37 | 303 | 2.0 | 5.0 | 0.00 | 0.00 | 0.00 | 78 | 1015.7 |
| 20260503054531 | 37 | 331 | 2.0 | 4.0 | 0.00 | 0.00 | 0.00 | 78 | 1015.7 |
| 20260503054008 | 37 | 311 | 1.0 | 5.0 | 0.00 | 0.00 | 0.00 | 78 | 1015.7 |
| 20260503053507 | 37 | 304 | 3.0 | 7.0 | 0.00 | 0.00 | 0.00 | 78 | 1015.7 |
| 20260503053031 | 37 | 322 | 2.0 | 7.0 | 0.00 | 0.00 | 0.00 | 77 | 1015.7 |
| 20260503052508 | 37 | 309 | 1.0 | 9.0 | 0.00 | 0.00 | 0.00 | 77 | 1015.8 |
| 20260503052011 | 37 | 5 | 4.0 | 9.0 | 0.00 | 0.00 | 0.00 | 77 | 1015.7 |
| 20260503051529 | 37 | 309 | 1.0 | 6.0 | 0.00 | 0.00 | 0.00 | 76 | 1015.7 |
| 20260503051009 | 38 | 313 | 0.0 | 6.0 | 0.00 | 0.00 | 0.00 | 76 | 1015.7 |
| 20260503050506 | 38 | 298 | 2.0 | 5.0 | 0.00 | 0.00 | 0.00 | 75 | 1015.8 |
| 20260503050020 | 38 | 295 | 0.0 | 8.0 | 0.00 | 0.00 | 0.00 | 75 | 1015.7 |
| 20260503045508 | 38 | 352 | 4.0 | 8.0 | 0.00 | 0.00 | 0.00 | 75 | 1015.7 |
| 20260503045007 | 38 | 328 | 3.0 | 8.0 | 0.00 | 0.00 | 0.00 | 74 | 1015.7 |
| 20260503044534 | 38 | 9 | 2.0 | 11.0 | 0.00 | 0.00 | 0.00 | 74 | 1015.8 |
| 20260503044007 | 38 | 19 | 4.0 | 11.0 | 0.00 | 0.00 | 0.00 | 74 | 1015.8 |
| 20260503043508 | 38 | 276 | 4.0 | 10.0 | 0.00 | 0.00 | 0.00 | 73 | 1015.8 |
| 20260503043033 | 38 | 309 | 4.0 | 10.0 | 0.00 | 0.00 | 0.00 | 73 | 1015.8 |
| 20260503042511 | 39 | 325 | 4.0 | 8.0 | 0.00 | 0.00 | 0.00 | 73 | 1015.8 |
| 20260503042012 | 39 | 334 | 2.0 | 7.0 | 0.00 | 0.00 | 0.00 | 72 | 1015.9 |
| 20260503041528 | 39 | 284 | 3.0 | 8.0 | 0.00 | 0.00 | 0.00 | 72 | 1015.8 |
| 20260503041008 | 39 | 319 | 3.0 | 9.0 | 0.00 | 0.00 | 0.00 | 72 | 1015.8 |
| 20260503040509 | 39 | 309 | 4.0 | 9.0 | 0.00 | 0.00 | 0.00 | 71 | 1015.8 |
| 20260503040003 | 39 | 9 | 1.0 | 5.0 | 0.00 | 0.00 | 0.00 | 71 | 1015.8 |
| 20260503035502 | 39 | 342 | 2.0 | 9.0 | 0.00 | 0.00 | 0.00 | 71 | 1015.8 |
| 20260503035003 | 39 | 339 | 3.0 | 11.0 | 0.00 | 0.00 | 0.00 | 70 | 1015.7 |
| 20260503034503 | 40 | 333 | 4.0 | 12.0 | 0.00 | 0.00 | 0.00 | 70 | 1015.7 |
| 20260503034003 | 40 | 325 | 6.0 | 12.0 | 0.00 | 0.00 | 0.00 | 70 | 1015.8 |
| 20260503033503 | 40 | 287 | 2.0 | 10.0 | 0.00 | 0.00 | 0.00 | 69 | 1015.8 |
| 20260503033004 | 40 | 12 | 4.0 | 11.0 | 0.00 | 0.00 | 0.00 | 69 | 1015.8 |
| 20260503032506 | 40 | 341 | 4.0 | 11.0 | 0.00 | 0.00 | 0.00 | 69 | 1015.7 |
| 20260503032003 | 40 | 27 | 5.0 | 10.0 | 0.00 | 0.00 | 0.00 | 68 | 1015.8 |
| 20260503031508 | 40 | 305 | 3.0 | 10.0 | 0.00 | 0.00 | 0.00 | 69 | 1015.8 |
| 20260503031003 | 41 | 301 | 5.0 | 11.0 | 0.00 | 0.00 | 0.00 | 68 | 1015.7 |
| 20260503030505 | 41 | 336 | 5.0 | 12.0 | 0.00 | 0.00 | 0.00 | 67 | 1015.7 |
| 20260503030010 | 41 | 316 | 4.0 | 13.0 | 0.00 | 0.00 | 0.00 | 66 | 1015.7 |
| 20260503025503 | 41 | 309 | 5.0 | 13.0 | 0.00 | 0.00 | 0.00 | 66 | 1015.8 |
| 20260503025003 | 41 | 301 | 5.0 | 11.0 | 0.00 | 0.00 | 0.00 | 65 | 1015.8 |
| 20260503024520 | 41 | 327 | 5.0 | 11.0 | 0.00 | 0.00 | 0.00 | 64 | 1015.8 |
| 20260503024002 | 41 | 300 | 3.0 | 11.0 | 0.00 | 0.00 | 0.00 | 64 | 1015.8 |
| 20260503023503 | 41 | 333 | 2.0 | 8.0 | 0.00 | 0.00 | 0.00 | 64 | 1015.7 |
| 20260503023003 | 41 | 298 | 3.0 | 7.0 | 0.00 | 0.00 | 0.00 | 63 | 1015.7 |
| 20260503022503 | 42 | 273 | 2.0 | 8.0 | 0.00 | 0.00 | 0.00 | 64 | 1015.7 |
| 20260503022003 | 42 | 237 | 1.0 | 10.0 | 0.00 | 0.00 | 0.00 | 64 | 1015.6 |
| 20260503021505 | 42 | 303 | 4.0 | 11.0 | 0.00 | 0.00 | 0.00 | 63 | 1015.6 |
| 20260503021003 | 42 | 318 | 6.0 | 17.0 | 0.00 | 0.00 | 0.00 | 62 | 1015.6 |
| 20260503020503 | 42 | 266 | 2.0 | 17.0 | 0.00 | 0.00 | 0.00 | 62 | 1015.6 |
| 20260503020012 | 42 | 251 | 5.0 | 12.0 | 0.00 | 0.00 | 0.00 | 61 | 1015.6 |
| 20260503015504 | 42 | 314 | 4.0 | 12.0 | 0.00 | 0.00 | 0.00 | 61 | 1015.6 |
| 20260503015002 | 42 | 24 | 3.0 | 11.0 | 0.00 | 0.00 | 0.00 | 60 | 1015.5 |
| 20260503014515 | 42 | 65 | 3.0 | 11.0 | 0.00 | 0.00 | 0.00 | 59 | 1015.5 |
| 20260503014004 | 42 | 311 | 2.0 | 9.0 | 0.00 | 0.00 | 0.00 | 59 | 1015.5 |
| 20260503013506 | 43 | 324 | 3.0 | 5.0 | 0.00 | 0.00 | 0.00 | 59 | 1015.4 |
| 20260503013034 | 43 | 338 | 2.0 | 8.0 | 0.00 | 0.00 | 0.00 | 58 | 1015.3 |
| 20260503012506 | 43 | 333 | 4.0 | 10.0 | 0.00 | 0.00 | 0.00 | 58 | 1015.4 |
| 20260503012004 | 43 | 14 | 4.0 | 10.0 | 0.00 | 0.00 | 0.00 | 56 | 1015.2 |
| 20260503011503 | 44 | 325 | 1.0 | 6.0 | 0.00 | 0.00 | 0.00 | 55 | 1015.1 |
| 20260503011004 | 44 | 332 | 2.0 | 8.0 | 0.00 | 0.00 | 0.00 | 53 | 1015.0 |
| 20260503010505 | 44 | 327 | 3.0 | 10.0 | 0.00 | 0.00 | 0.00 | 52 | 1014.9 |
| 20260503010008 | 44 | 281 | 4.0 | 12.0 | 0.00 | 0.00 | 0.00 | 51 | 1014.7 |
| 20260503005502 | 44 | 285 | 6.0 | 12.0 | 0.00 | 0.00 | 0.00 | 51 | 1014.7 |
| 20260503005004 | 44 | 344 | 3.0 | 9.0 | 0.00 | 0.00 | 0.00 | 51 | 1014.6 |
| 20260503004537 | 44 | 331 | 3.0 | 6.0 | 0.00 | 0.00 | 0.00 | 51 | 1014.6 |
| 20260503004003 | 44 | 319 | 0.0 | 8.0 | 0.00 | 0.00 | 0.00 | 52 | 1014.5 |
| 20260503003505 | 44 | 286 | 2.0 | 9.0 | 0.00 | 0.00 | 0.00 | 51 | 1014.4 |
| 20260503003018 | 45 | 244 | 5.0 | 10.0 | 0.00 | 0.00 | 0.00 | 50 | 1014.4 |
| 20260503002506 | 45 | 340 | 5.0 | 13.0 | 0.00 | 0.00 | 0.00 | 49 | 1014.4 |
| 20260503002006 | 45 | 327 | 5.0 | 13.0 | 0.00 | 0.00 | 0.00 | 49 | 1014.4 |
| 20260503001522 | 45 | 315 | 7.0 | 11.0 | 0.00 | 0.00 | 0.00 | 49 | 1014.4 |
| 20260503001006 | 45 | 325 | 7.0 | 11.0 | 0.00 | 0.01 | 0.00 | 51 | 1014.5 |
| 20260503000509 | 45 | 326 | 3.0 | 10.0 | 0.00 | 0.01 | 0.00 | 50 | 1014.4 |